Observations for Trim Market St
| Time | AQI | Temp °C | Hum % | Pres Pa | CO μg/m³ | H₂S μg/m³ | NO μg/m³ | NO₂ μg/m³ | O₃ μg/m³ | SO₂ μg/m³ | PM1 μg/m³ | PM2.5 μg/m³ | PM10 μg/m³ |
|---|---|---|---|---|---|---|---|---|---|---|---|---|---|
| Monday 17 August 2026 | |||||||||||||
| 12:23 | 2 | 24.5 | 56 | 56,925 | 0 | 0 | 3.26 | 12.69 | 51.17 | 0 | 0 | 1.69 | 1.84 |
| 12:22 | 2 | 24.5 | 56 | 56,902 | 0 | 0 | 3.25 | 13.14 | 44.94 | 0 | 0 | 1.7 | 1.84 |
| 12:21 | 2 | 24.5 | 56 | 56,878 | 0 | 0 | 3.23 | 12.43 | 44.17 | 0 | 0 | 2.21 | 2.55 |
| 12:18 | 2 | 24.5 | 56 | 56,741 | 0 | 0 | 1.69 | 8.03 | 54.63 | 0 | 0 | 1.71 | 1.82 |
| 12:16 | 2 | 24.6 | 55 | 56,581 | 0 | 0 | 1.34 | 8.76 | 50.51 | 0 | 0 | 1.71 | 1.82 |
| 12:15 | 2 | 24.7 | 55 | 56,441 | 0 | 0 | 1.48 | 6.56 | 47.04 | 0 | 0 | 1.71 | 1.82 |
| 12:11 | 2 | 24.9 | 55 | 56,135 | 0 | 0 | 1.12 | 9.91 | 27.39 | 0 | 0 | 1.73 | 1.8 |
| 12:09 | 2 | 25 | 55 | 55,999 | 0 | 0 | 1.49 | 6.94 | 35.79 | 0 | 0 | 1.73 | 1.8 |
| 12:01 | 2 | 25.4 | 56 | 55,899 | 0.02 | 0 | 1.13 | 7.4 | 31.1 | 0 | 0.71 | 3.72 | 4.68 |
| 12:00 | 2 | 25.4 | 56 | 55,999 | 0.06 | 0 | 1.15 | 7.29 | 17.41 | 0 | 1.43 | 3.72 | 4.69 |
| 11:56 | 2 | 25.3 | 57 | 56,408 | 0.2 | 0 | 1.42 | 9.91 | 25.48 | 0 | 0 | 1.66 | 1.89 |
| 11:55 | 2 | 25.3 | 57 | 56,580 | 0.25 | 0 | 1.39 | 10.98 | 27.27 | 0 | 0 | 1.64 | 1.9 |
| 11:54 | 2 | 25.2 | 58 | 56,712 | 0.56 | 0 | 1.38 | 9.75 | 23.94 | 0 | 0 | 1.63 | 1.92 |
| 11:52 | 2 | 25.1 | 58 | 57,018 | 0.26 | 0 | 1.26 | 9.88 | 46.7 | 0 | 0 | 1.61 | 1.94 |
| 11:51 | 2 | 25 | 58 | 57,064 | 0.14 | 0 | 1.24 | 8.8 | 47.01 | 0 | 0 | 1.59 | 1.96 |
| 11:50 | 2 | 24.9 | 59 | 57,163 | 0.09 | 0 | 1.15 | 8.22 | 48.83 | 0 | 0 | 1.57 | 1.98 |
| 11:49 | 2 | 24.8 | 59 | 57,301 | 0.2 | 0 | 1.06 | 8.07 | 47.79 | 0 | 0 | 1.55 | 2.01 |
| 11:48 | 2 | 24.6 | 60 | 57,461 | 0.12 | 0 | 1.06 | 8.19 | 51.6 | 0 | 0 | 1.55 | 2.02 |
| 11:47 | 2 | 24.4 | 60 | 57,458 | 0.17 | 0 | 1.07 | 8.59 | 44.93 | 0 | 0 | 1.53 | 2.03 |
| 11:45 | 2 | 24.2 | 60 | 57,432 | 0.05 | 0 | 1.2 | 8.14 | 52.29 | 0 | 0 | 1.51 | 2.05 |